Вернуться в каталог

FENGYUN 1C DEB

АктивенSSO
NORAD 30368·DEBRIS·🇨🇳 China

Запущен May 10, 1999 с Taiyuan Satellite Launch Center

Loading…

Ближайшие Пролёты (ближайшие 24 часа)

TLE

СвежийSource: Space-Track

Эпоха: Sep 13, 2026, 18:07 UTC

1 30368U 99025ACF 26256.75496429  .00000106  00000-0  13807-3 0  9991
2 30368  99.1983 357.9546 0184740 302.6905 212.3392 13.75534696984427

Отслеживайте FENGYUN 1C DEB в реальном времени с AllMySat

Download on the App Store